Terug naar catalogus

STARLINK-32567

ActiefCommunicatieVLEO
NORAD 61930·PAYLOAD·🇺🇸 United States

Gelanceerd Nov 11, 2024 vanaf Cape Canaveral Space Force Station

Loading…

Volgende Passages (komende 24 uur)

TLE

VersSource: CelesTrak SupGP

Epoch: Sep 14, 2026, 22:09 UTC

1 61930C 24207U   26257.92340278  .00016970  00000+0  61471-3 0  2572
2 61930  43.0016 289.6667 0001450 263.4703  30.4495 15.27565746    18

Volg STARLINK-32567 in realtime met AllMySat

Download on the App Store